[[{"header":{"parameterUnit":"m.s-1","parameterCategory":1,"la1":30.2991,"la2":30.254,"lo1":-89.0895,"lo2":-89.0444,"dy":0.0017,"dx":0.0017,"nx":28,"ny":28,"refTime":"2025-01-10T03:00:00:Z","depth":0,"parameterNumber":2,"parameterNumberName":"U-component_of_WINDS"},"data":[0,0,0,0,0,0,0,0,0,0,0,0,0,0,0,0,0,0,0,0,0,0,0,0,0,0,0,0,0,0,0,0,0,0,0,0,0,0,0,0,0,0,0,0,0,0,0,0,0,0,0,0,0,0,0,0,0,0,3.4147,3.4147,0,3.4166,3.4166,3.4166,3.4114,3.4112,3.4111,3.4109,3.4127,3.4129,3.4131,0,0,0,0,0,0,0,0,0,0,0,0,0,3.4064,3.4066,3.4147,3.4147,3.4147,3.4166,3.4166,3.4167,3.4114,3.4112,3.411,3.4108,3.4126,3.4129,3.4131,0,0,0,0,0,0,0,0,0,0,0,0,0,3.4093,3.4066,3.4147,3.4123,3.4122,3.4166,3.4166,3.4167,3.4115,3.4112,3.411,3.4108,3.4126,3.4128,3.4131,3.4199,0,0,3.414,3.4142,0,0,0,0,0,0,0,0,3.4092,3.4096,3.4127,3.4125,3.4123,3.4135,3.4144,3.4177,3.4115,3.4117,3.4109,3.4106,3.4132,3.4134,3.4143,3.4199,3.42,3.4141,3.4143,3.4144,3.4145,0,0,0,0,0,0,0,3.409,3.4095,3.4154,3.4127,3.4125,3.4112,3.4113,3.415,3.4138,3.4117,3.4113,3.4116,3.413,3.414,3.4143,3.42,3.4141,3.4143,3.4145,3.4146,3.4314,3.4317,0,0,0,0,0,0,3.4091,3.4094,3.4154,3.4155,3.4101,3.4115,3.4117,3.4134,3.4137,3.4135,3.4118,3.4114,3.4136,3.4139,3.4143,3.4223,3.4144,3.4147,3.4148,3.4312,3.4315,3.4318,0,0,0,0,0,0,3.4089,3.4097,3.4153,3.4123,3.413,3.4119,3.4139,3.4135,3.4145,3.4138,3.4136,3.4131,3.4134,3.4139,3.4186,3.4222,3.4148,3.4151,3.4309,3.4313,3.4316,3.4382,0,0,0,0,0,0,3.4087,3.4096,3.4122,3.4124,3.4131,3.4195,3.4141,3.4138,3.4151,3.4145,3.4149,3.4148,3.4133,3.4181,3.4189,3.4225,3.4153,3.4305,3.431,3.4315,3.4376,3.4387,3.4397,0,0,0,0,0,3.4084,3.4139,3.4123,3.4131,3.4163,3.4197,3.4201,3.4184,3.4154,3.4179,3.4175,3.4147,3.4218,3.4187,3.4194,3.4232,3.4303,3.4309,3.4315,3.4371,3.4385,3.4397,0,0,0,0,0,0,3.4139,3.4138,3.4121,3.4178,3.4189,3.4189,3.422,3.4199,3.4217,3.4211,3.4188,3.4189,3.424,3.4241,3.4206,3.4298,3.4255,3.4263,3.4296,3.4309,3.4319,3.4317,3.4155,0,0,0,0,0,3.4158,3.4187,3.4184,3.4235,3.4241,3.423,3.4244,3.423,3.4239,3.4243,3.4242,3.4252,3.4276,3.4292,3.4314,3.4377,3.4377,3.4407,3.4417,3.4426,3.4432,3.4466,3.4479,3.4338,3.4338,3.4337,0,0,3.4197,3.42,3.4219,3.4246,3.4252,3.4282,3.4234,3.4267,3.4289,3.4248,3.4292,3.4292,3.4301,3.4357,3.4381,3.4359,3.4472,3.4433,3.444,3.4442,3.4474,3.4487,3.4499,3.4342,3.4341,3.434,0,0,3.4283,3.4289,3.4332,3.434,3.435,3.4343,3.4354,3.4357,3.4356,3.44,3.4371,3.4397,3.4439,3.4447,3.4456,3.4549,3.4524,3.4557,3.4611,3.4644,3.4655,3.4665,3.4698,3.471,3.4564,3.4564,3.4564,0,3.433,3.4374,3.4356,3.4393,3.4405,3.4371,3.4415,3.4423,3.444,3.4449,3.4425,3.4479,3.4482,3.4539,3.4562,3.4571,3.4582,3.4555,3.4655,3.4665,3.4674,3.4705,3.4717,3.4568,3.4567,3.4567,3.4566,0,3.4432,3.4463,3.4497,3.4515,3.4532,3.4572,3.456,3.4579,3.4564,3.4559,3.4605,3.4609,3.4632,3.4645,3.463,3.47,3.4686,3.4659,3.4615,3.4691,3.472,3.4732,3.4573,3.4572,3.4571,3.457,0,0,3.4551,3.4561,3.4574,3.4582,3.4593,3.4616,3.4655,3.4678,3.4695,3.4709,3.474,3.4778,3.4754,3.4765,3.4751,3.478,3.4854,3.475,3.475,3.4769,3.4932,3.4952,3.4966,3.4838,3.484,3.4842,3.4931,0,3.4636,3.4703,3.4689,3.4754,3.4783,3.4753,3.4786,3.4797,3.4794,3.4818,3.4815,3.4842,3.4807,3.4814,3.4842,3.4839,3.4886,3.4833,3.4867,3.4869,3.4865,3.4981,3.5002,3.5085,3.4942,3.4944,3.4946,0,3.4744,3.4763,3.4832,3.4839,3.4851,3.4881,3.4902,3.4926,3.4937,3.4933,3.4947,3.4928,3.4967,3.4924,3.4976,3.494,3.4954,3.4955,3.4958,3.4959,3.4911,3.4986,3.5112,3.5124,3.4963,3.4962,3.496,0,3.4824,3.4867,3.4914,3.4922,3.4932,3.4954,3.4959,3.4968,3.4984,3.5002,3.5012,3.5034,3.5046,3.5064,3.5052,3.5022,3.5107,3.5063,3.5105,3.5105,3.5123,3.5122,3.5253,3.5133,3.5133,3.5133,3.5132,0,3.492,3.4963,3.495,3.4979,3.5027,3.5011,3.5059,3.506,3.5069,3.5097,3.5072,3.5099,3.5082,3.5108,3.5099,3.5144,3.515,3.5148,3.5144,3.5149,3.515,3.5157,3.5151,3.5136,3.5135,3.5135,3.5134,0,3.5017,3.501,3.5059,3.5066,3.5068,3.5103,3.5108,3.5135,3.5131,3.5168,3.5176,3.517,3.5199,3.5189,3.522,3.5214,3.5272,3.5262,3.5269,3.5266,3.5308,3.5304,3.5448,3.5466,3.5335,3.5337,3.5338,0,3.5078,3.5111,3.5122,3.514,3.5147,3.5176,3.5192,3.5178,3.5196,3.5212,3.5237,3.5265,3.5286,3.5335,3.5333,3.5357,3.5346,3.5395,3.535,3.5354,3.5347,3.5345,3.5348,3.5404,3.5405,3.5407,3.5408,0,3.5188,3.5184,3.5208,3.5233,3.5253,3.5271,3.5287,3.5303,3.529,3.5311,3.5342,3.5359,3.5391,3.5419,3.5441,3.5446,3.5425,3.5422,3.5433,3.5438,3.5441,3.544,3.5293,3.5419,3.5418,3.5417,3.5416,3.5416,3.5269,3.5297,3.531,3.5338,3.5349,3.5365,3.5391,3.5392,3.5417,3.5443,3.5433,3.5469,3.548,3.5508,3.5516,3.5544,3.5525,3.554,3.5544,3.5548,3.5554,3.5438,3.5547,3.5547,3.5547,3.5547,3.5546,0,3.5377,3.5384,3.5411,3.5435,3.5458,3.5438,3.5454,3.5475,3.5506,3.5519,3.5542,3.5577,3.5605,3.5606,3.5631,3.5653,3.5644,3.566,3.5658,3.566,3.5569,3.5557,3.5667,3.5667,3.5667,3.5667,3.5667,3.5667,3.5437,3.5484,3.5481,3.5534,3.554,3.5575,3.5587,3.5601,3.5612,3.5653,3.5676,3.5677,3.5686,3.5712,3.5737,3.5736,3.5747,3.5767,3.5763,3.5678,3.5666,3.5654,3.5643,3.5769,3.5769,3.585,3.5851,3.5852]},{"header":{"parameterUnit":"m.s-1","parameterCategory":1,"la1":30.2991,"la2":30.254,"lo1":-89.0895,"lo2":-89.0444,"dy":0.0017,"dx":0.0017,"nx":28,"ny":28,"refTime":"2025-01-10T03:00:00:Z","depth":0,"parameterNumber":3,"parameterNumberName":"V-component_of_WINDS"},"data":[0,0,0,0,0,0,0,0,0,0,0,0,0,0,0,0,0,0,0,0,0,0,0,0,0,0,0,0,0,0,0,0,0,0,0,0,0,0,0,0,0,0,0,0,0,0,0,0,0,0,0,0,0,0,0,0,0,0,-5.8142,-5.8144,0,-5.8327,-5.8329,-5.8332,-5.832,-5.8317,-5.8315,-5.8312,-5.8499,-5.8506,-5.8514,0,0,0,0,0,0,0,0,0,0,0,0,0,-5.7775,-5.7782,-5.8141,-5.8144,-5.8146,-5.8327,-5.833,-5.8332,-5.8321,-5.8317,-5.8314,-5.8311,-5.8497,-5.8506,-5.8514,0,0,0,0,0,0,0,0,0,0,0,0,0,-5.7945,-5.7784,-5.8141,-5.8162,-5.8166,-5.8327,-5.833,-5.8333,-5.8321,-5.8317,-5.8313,-5.8309,-5.8494,-5.8505,-5.8516,-5.8666,0,0,-5.855,-5.8555,0,0,0,0,0,0,0,0,-5.7935,-5.7958,-5.8157,-5.8161,-5.8166,-5.8297,-5.8269,-5.8444,-5.8322,-5.8262,-5.8312,-5.8307,-5.8435,-5.8451,-5.8494,-5.8675,-5.8683,-5.8551,-5.8558,-5.8563,-5.8566,0,0,0,0,0,0,0,-5.7923,-5.795,-5.8215,-5.816,-5.8165,-5.8162,-5.8182,-5.8302,-5.8369,-5.8267,-5.8267,-5.8289,-5.8436,-5.8483,-5.8499,-5.8686,-5.8551,-5.8561,-5.8568,-5.8572,-5.9,-5.9004,0,0,0,0,0,0,-5.7907,-5.794,-5.8209,-5.822,-5.8038,-5.8172,-5.8194,-5.8259,-5.8368,-5.838,-5.8292,-5.8288,-5.8466,-5.8485,-5.8505,-5.8689,-5.8563,-5.8573,-5.858,-5.8995,-5.9001,-5.9006,0,0,0,0,0,0,-5.7899,-5.7931,-5.8202,-5.808,-5.8115,-5.8182,-5.8255,-5.8264,-5.8311,-5.8387,-5.8398,-5.8328,-5.8464,-5.8489,-5.8627,-5.8695,-5.8578,-5.8588,-5.899,-5.8997,-5.9004,-5.9058,0,0,0,0,0,0,-5.7889,-5.7928,-5.7987,-5.8082,-5.8121,-5.8321,-5.826,-5.8271,-5.8331,-5.8327,-5.8423,-5.8435,-5.8463,-5.861,-5.8638,-5.8709,-5.8597,-5.8984,-5.8993,-5.9001,-5.905,-5.9066,-5.9079,0,0,0,0,0,-5.7876,-5.7994,-5.799,-5.8022,-5.8196,-5.8325,-5.8347,-5.8377,-5.8337,-5.8396,-5.8444,-5.8432,-5.8683,-5.8624,-5.8655,-5.8731,-5.898,-5.8991,-5.9001,-5.9044,-5.9063,-5.9079,0,0,0,0,0,0,-5.7903,-5.8006,-5.8003,-5.8156,-5.8232,-5.8323,-5.8398,-5.8396,-5.8484,-5.8476,-5.8508,-5.853,-5.8669,-5.8713,-5.8645,-5.8882,-5.8826,-5.8843,-5.8848,-5.8867,-5.8881,-5.8867,-5.8607,0,0,0,0,0,-5.7928,-5.8025,-5.8109,-5.8235,-5.8274,-5.833,-5.8387,-5.8403,-5.8483,-5.8515,-5.8573,-5.865,-5.8747,-5.8809,-5.8902,-5.9057,-5.9078,-5.9124,-5.9138,-5.915,-5.9164,-5.925,-5.9272,-5.904,-5.904,-5.904,0,0,-5.7978,-5.8046,-5.8105,-5.8243,-5.8304,-5.8403,-5.8357,-5.8463,-5.8537,-5.8531,-5.8665,-5.871,-5.8798,-5.8945,-5.9013,-5.8987,-5.9233,-5.9163,-5.9172,-5.918,-5.9263,-5.9285,-5.9304,-5.9047,-5.9046,-5.9045,0,0,-5.812,-5.8182,-5.8294,-5.8357,-5.845,-5.8486,-5.8513,-5.8606,-5.8636,-5.8771,-5.8769,-5.8856,-5.9021,-5.9085,-5.9138,-5.9306,-5.9299,-5.9336,-5.9411,-5.9494,-5.9512,-5.9529,-5.9589,-5.961,-5.935,-5.935,-5.935,0,-5.8171,-5.8321,-5.8352,-5.8461,-5.8521,-5.8521,-5.8635,-5.8694,-5.8812,-5.8854,-5.8823,-5.9031,-5.909,-5.9253,-5.9294,-5.9337,-5.9369,-5.9325,-5.9508,-5.9524,-5.954,-5.9598,-5.962,-5.9354,-5.9353,-5.9353,-5.9352,0,-5.8379,-5.8483,-5.8563,-5.8679,-5.8748,-5.8859,-5.8906,-5.8973,-5.8983,-5.9023,-5.9161,-5.9232,-5.934,-5.9379,-5.939,-5.9544,-5.9525,-5.9501,-5.9445,-5.9565,-5.962,-5.9643,-5.9359,-5.9358,-5.9357,-5.9356,0,0,-5.8543,-5.8676,-5.8705,-5.8758,-5.8861,-5.8942,-5.9053,-5.916,-5.9216,-5.9298,-5.9392,-5.9532,-5.9511,-5.9572,-5.959,-5.9663,-5.9792,-5.963,-5.9633,-5.9658,-5.9966,-5.9984,-6.0009,-5.9788,-5.9793,-5.9796,-5.9959,0,-5.8697,-5.8894,-5.8925,-5.9098,-5.9196,-5.9198,-5.9294,-5.9368,-5.9408,-5.9495,-5.9539,-5.9639,-5.9603,-5.964,-5.9712,-5.9761,-5.9855,-5.975,-5.9875,-5.9879,-5.9853,-6.0038,-6.0057,-6.0207,-5.9981,-5.9984,-5.9987,0,-5.8902,-5.8991,-5.9174,-5.9266,-5.9307,-5.9394,-5.9494,-5.9578,-5.9662,-5.9686,-5.9755,-5.9765,-5.9879,-5.9819,-5.9977,-5.9905,-5.9958,-5.999,-5.9997,-6.0009,-5.994,-6.0056,-6.0256,-6.0278,-6.0021,-6.0018,-6.0016,0,-5.9004,-5.9169,-5.9301,-5.9346,-5.9456,-5.9517,-5.9565,-5.9645,-5.9707,-5.9795,-5.9836,-5.9935,-5.999,-6.0066,-6.0102,-6.0055,-6.0258,-6.0201,-6.0281,-6.028,-6.0324,-6.0321,-6.0535,-6.0358,-6.0357,-6.0357,-6.0357,0,-5.9172,-5.9284,-5.9348,-5.9429,-5.9555,-5.959,-5.9713,-5.9759,-5.9831,-5.992,-5.9927,-6.0011,-6.0054,-6.0144,-6.0173,-6.03,-6.0324,-6.0346,-6.0353,-6.0346,-6.0343,-6.0381,-6.0372,-6.0363,-6.0362,-6.0361,-6.036,0,-5.9307,-5.9355,-5.9498,-5.9591,-5.9617,-5.9706,-5.9785,-5.9863,-5.9903,-6.0016,-6.0045,-6.0107,-6.0214,-6.0258,-6.0388,-6.0407,-6.0553,-6.0551,-6.0525,-6.0527,-6.0606,-6.0598,-6.0852,-6.0888,-6.0687,-6.0688,-6.069,0,-5.9411,-5.9498,-5.9601,-5.9662,-5.9713,-5.9811,-5.9875,-5.9912,-5.9979,-6.0082,-6.0148,-6.0254,-6.0342,-6.0512,-6.0568,-6.0668,-6.0669,-6.0751,-6.0684,-6.0675,-6.0671,-6.0665,-6.0674,-6.0763,-6.0765,-6.0767,-6.0768,0,-5.9592,-5.9611,-5.9704,-5.9806,-5.9882,-5.9964,-6.0043,-6.0093,-6.0142,-6.0217,-6.0327,-6.0395,-6.0528,-6.0634,-6.0738,-6.0787,-6.0786,-6.0789,-6.0813,-6.0807,-6.0789,-6.0801,-6.0559,-6.0783,-6.0782,-6.0781,-6.078,-6.0779,-5.9715,-5.9792,-5.9877,-5.998,-6.0044,-6.0119,-6.0197,-6.0248,-6.034,-6.0453,-6.0469,-6.0587,-6.0669,-6.0808,-6.0861,-6.0954,-6.0932,-6.0967,-6.0976,-6.0984,-6.0989,-6.0775,-6.0972,-6.0972,-6.0972,-6.0971,-6.0971,0,-5.9896,-5.9951,-6.0046,-6.0157,-6.0239,-6.0232,-6.032,-6.0389,-6.0492,-6.0569,-6.0656,-6.0782,-6.0885,-6.0951,-6.1055,-6.1116,-6.1118,-6.1142,-6.1138,-6.1149,-6.1002,-6.0971,-6.1138,-6.1138,-6.1138,-6.1138,-6.1138,-6.1138,-6.0,-6.013,-6.016,-6.0323,-6.0377,-6.0493,-6.0544,-6.0613,-6.0674,-6.0816,-6.0902,-6.0944,-6.1017,-6.1126,-6.1221,-6.1237,-6.1275,-6.13,-6.1315,-6.1177,-6.1159,-6.1143,-6.1114,-6.1308,-6.1308,-6.1455,-6.1456,-6.1457]}]]